Pagrindinis puslapis
METAR-TAF:

METAR-TAF

Oro uostai :

Lycksele, Švedija

platuma: 64-32-51N, ilguma: 018-43-03E, Aukštis: 211 m

Dabartinis oras

Ataskaita buvo paskelbta 20 minutes, ne 02:20 UTC
Ramus vėjas
Temperatūra -28°C
Drėgmė 75%
Slėgis 993 hPa
Matomumas 10 km arba daugiau

METAR: ESNL 010220Z AUTO 00000KT 9999 R14/P2000N R32///// NCD M28/M31 Q0993

Laikas: 03:40 (02:40 UTC)


TAF: trūkstamas

Orai ataskaitas ir orų prognozės (METAR, TAF).

turimą stotys yra geltonos ir raudonos taškus žemėlapyje.

Perkelti pele per norėdami pamatyti stoties vardą.

Tada spustelėkite, norėdami matyti oro stebėjimo ir prognozės.

Norėdami pakeisti žemėlapį: spustelėkite ant žalios mygtukų su juodo kryžiaus žemyn,; žalią mygtuką su brūkšneliu, jei norite nutolinti; arba žalių rodyklių gretimoms žemėlapius.


METAR-TAF: